This is the latest recevied weather packets stored in our database for station/object W7BL. If no packets are shown the sender has not sent any weather packets the latest 10 day(s).
| Time | Temp. | Humidity | Pressure | Rain* | Wind** | Luminosity | Snow |
|---|---|---|---|---|---|---|---|
| 1777781049 | 16.11° C | 47% | - | 0 mm | - | - | - |
| 1777780746 | 16.11° C | 47% | - | 0 mm | - | - | - |
| 1777780442 | 16.67° C | 47% | - | 0 mm | - | - | - |
| 1777780140 | 16.67° C | 46% | - | 0 mm | - | - | - |
| 1777779838 | 17.22° C | 45% | - | 0 mm | - | - | - |
| 1777779534 | 17.22° C | 44% | - | 0 mm | - | - | - |
| 1777779232 | 17.22° C | 43% | - | 0 mm | - | - | - |
| 1777778930 | 16.67° C | 46% | - | 0 mm | - | - | - |
| 1777778628 | 17.22° C | 46% | - | 0 mm | - | - | - |
| 1777778325 | 17.22° C | 44% | - | 0 mm | - | - | - |
| 1777778023 | 17.78° C | 44% | - | 0 mm | - | - | - |
| 1777777719 | 17.78° C | 45% | - | 0 mm | - | - | - |
| 1777777416 | 17.78° C | 44% | - | 0 mm | - | - | - |
| 1777777112 | 18.33° C | 43% | - | 0 mm | - | - | - |
| 1777776810 | 18.33° C | 42% | - | 0 mm | - | - | - |
| 1777776507 | 18.89° C | 41% | - | 0 mm | - | - | - |
| 1777776203 | 18.89° C | 40% | - | 0 mm | - | - | - |
| 1777775900 | 19.44° C | 40% | - | 0 mm | - | - | - |
| 1777775598 | 20° C | 39% | - | 0 mm | - | - | - |
| 1777775295 | 20.56° C | 37% | - | 0 mm | - | - | - |
| 1777774994 | 20.56° C | 39% | - | 0 mm | - | - | - |
| 1777774691 | 21.67° C | 37% | - | 0 mm | - | - | - |
| 1777774388 | 22.22° C | 33% | - | 0 mm | - | - | - |
| 1777774085 | 22.22° C | 31% | - | 0 mm | - | - | - |
| 1777773782 | 22.78° C | 30% | - | 0 mm | - | - | - |
* Rain latest hour (hover to see other rain measurements)
** Current wind speed in m/s (hover to see current wind gust speed)